Location: Newark
(29.9790°N, 31.1340°E)
Time: 08:28:29
(UTC+00:00)

Courier 1B Rocket - Visible Passes

Search period start: 18 January 2020 00:00
Search period end: 28 January 2020 00:00
Orbit: 920 x 1202 km, 28.2° (Epoch: 17 January)

Date Brightness Start Highest point End Pass type
(mag) Time Alt. Az. Time Alt. Az. Time Alt. Az.
18 Jan 5.5 16:11:33 10° W 16:17:36 56° SSW 16:23:48 10° ESE visible
18 Jan 6.6 18:05:39 10° WSW 18:10:37 24° SSW 18:10:41 24° SSW visible
19 Jan 6.2 17:04:15 10° W 17:09:45 33° SSW 17:14:00 16° SSE visible
20 Jan 5.9 16:03:01 10° W 16:08:53 43° SSW 16:14:48 10° SE visible
20 Jan 7.1 17:58:04 10° WSW 18:01:45 16° SSW 18:03:50 14° S visible
21 Jan 6.8 16:56:08 10° WSW 17:00:56 23° SSW 17:05:46 10° SSE visible
22 Jan 6.5 15:54:38 10° W 16:00:06 32° SSW 16:05:34 10° SE visible
23 Jan 7.3 16:48:36 10° WSW 16:52:03 15° SSW 16:55:32 10° S visible
24 Jan 7.1 15:46:30 10° WSW 15:51:16 23° SSW 15:55:59 10° SSE visible
